Alexandria, LA

5:19 PM CDT on September 29, 2016 (GMT -0500)
Alexandria International

Weather History for KAEX - November, 2012

Change the Weather History Date:

Monday, November 19, 2012

  Actual Average Record
Temperature  
Mean Temperature 54 °F 56 °F  
Max Temperature 71 °F 68 °F 83 °F (1930)
Min Temperature 36 °F 44 °F 21 °F (1951)
Degree Days  
Heating Degree Days 11 9  
Month to date heating degree days 158 129  
Since 1 July heating degree days 253 202  
Growing Degree Days 4 (Base 50)    
Moisture  
Dew Point 40 °F    
Average Humidity 62    
Maximum Humidity 92    
Minimum Humidity 31    
Precipitation  
Precipitation 0.00 in 0.19 in 1.82 in (1969)
Month to date precipitation 0.43 2.88  
Year to date precipitation 47.95 47.19  
Snow  
Snow 0.00 in - 0.00 in ()
Month to date snowfall 0.0  
Since 1 July snowfall 0.0  
Since 1 September snowfall 0.0  
Snow Depth 0.00 in    
Sea Level Pressure  
Sea Level Pressure 30.25 in    
Wind  
Wind Speed 1 mph (ESE)    
Max Wind Speed 7 mph    
Max Gust Speed 9 mph    
Visibility 10 miles    
Events      
T = Trace of Precipitation, MM = Missing Value Source: NWS Daily Summary

Daily Weather History Graph

Daily Weather History Graph

Search for Another Location

Airport or City:

Trip Planner

Search our weather history database for the weather conditions in past years. The results will help you decide how hot, cold, wet, or windy it might be!

Date:

Astronomy

Nov. 19, 2012 Rise Set
Actual Time 6:41 AM CST 5:09 PM CST
Civil Twilight 6:15 AM CST 5:35 PM CST
Nautical Twilight 5:46 AM CST 6:05 PM CST
Astronomical Twilight 5:17 AM CST 6:34 PM CST
Moon 11:53 AM CST (11/19) 11:26 PM CST (11/19)
Length of Visible Light 11h 19m
Length of Day
10h 28m
Waxing Crescent, 41% of the Moon is Illuminated
Nov 19
Waxing Crescent
Nov 20
First Quarter
Nov 28
Full
Dec 6
Last Quarter
Dec 13
New

Hourly Weather History & Observations

Time (CST) Temp. Dew Point Humidity Pressure Visibility Wind Dir Wind Speed Gust Speed Precip Events Conditions
12:53 AM 41.0 °F 36.0 °F 82% 30.28 in 10.0 mi Calm Calm - N/A   Clear
1:53 AM 39.9 °F 37.0 °F 89% 30.27 in 10.0 mi Calm Calm - N/A   Clear
2:53 AM 37.9 °F 34.0 °F 86% 30.28 in 10.0 mi Calm Calm - N/A   Clear
3:53 AM 37.0 °F 30.9 °F 79% 30.28 in 10.0 mi Calm Calm - N/A   Clear
4:53 AM 37.0 °F 32.0 °F 82% 30.28 in 10.0 mi Calm Calm - N/A   Clear
5:53 AM 37.0 °F 34.0 °F 89% 30.28 in 10.0 mi Calm Calm - N/A   Clear
6:53 AM 37.0 °F 32.0 °F 82% 30.30 in 10.0 mi Calm Calm - N/A   Clear
7:53 AM 43.0 °F 39.0 °F 86% 30.30 in 9.0 mi Calm Calm - N/A   Clear
8:53 AM 51.1 °F 42.1 °F 71% 30.31 in 10.0 mi Calm Calm - N/A   Clear
9:53 AM 59.0 °F 43.0 °F 55% 30.32 in 10.0 mi SE 3.5 mph - N/A   Clear
10:53 AM 64.9 °F 42.1 °F 43% 30.30 in 10.0 mi ESE 5.8 mph - N/A   Clear
11:53 AM 68.0 °F 43.0 °F 40% 30.27 in 10.0 mi Variable 4.6 mph - N/A   Clear
12:53 PM 70.0 °F 41.0 °F 35% 30.24 in 10.0 mi Variable 4.6 mph - N/A   Clear
1:53 PM 71.1 °F 39.9 °F 32% 30.21 in 10.0 mi ENE 5.8 mph - N/A   Clear
2:53 PM 71.1 °F 39.9 °F 32% 30.19 in 10.0 mi SSE 3.5 mph - N/A   Clear
3:53 PM 70.0 °F 39.0 °F 32% 30.18 in 10.0 mi Calm Calm - N/A   Clear
4:53 PM 64.9 °F 46.9 °F 52% 30.19 in 10.0 mi Calm Calm - N/A   Clear
5:53 PM 59.0 °F 44.1 °F 58% 30.19 in 10.0 mi Calm Calm - N/A   Clear
6:53 PM 59.0 °F 44.1 °F 58% 30.21 in 10.0 mi Calm Calm - N/A   Clear
7:53 PM 57.0 °F 44.1 °F 62% 30.22 in 10.0 mi Calm Calm - N/A   Clear
8:53 PM 55.9 °F 45.0 °F 67% 30.22 in 10.0 mi Calm Calm - N/A   Scattered Clouds
9:53 PM 52.0 °F 43.0 °F 71% 30.20 in 10.0 mi Calm Calm - N/A   Clear
10:53 PM 50.0 °F 44.1 °F 80% 30.20 in 10.0 mi Calm Calm - N/A   Mostly Cloudy
11:53 PM 48.0 °F 39.0 °F 71% 30.19 in 10.0 mi Calm Calm - N/A   Clear